TimePST,TemperatureF,Dew PointF,Humidity,Sea Level PressureIn,VisibilityMPH,Wind Direction,Wind SpeedMPH,Gust SpeedMPH,PrecipitationIn,Events,Conditions,WindDirDegrees,DateUTC
12:53 AM,39.0,35.1,86,29.88,10.0,South,3.5,-,N/A,,Clear,190,2013-01-09 08:53:00
1:53 AM,39.9,36.0,86,29.86,10.0,SE,5.8,-,N/A,,Clear,130,2013-01-09 09:53:00
2:53 AM,39.0,36.0,89,29.84,10.0,Calm,Calm,-,N/A,,Partly Cloudy,0,2013-01-09 10:53:00
3:53 AM,42.1,36.0,79,29.82,10.0,NE,3.5,-,N/A,,Partly Cloudy,50,2013-01-09 11:53:00
4:53 AM,39.9,36.0,86,29.79,10.0,ESE,3.5,-,N/A,,Mostly Cloudy,120,2013-01-09 12:53:00
5:53 AM,44.1,37.0,76,29.74,10.0,ESE,6.9,-,N/A,,Clear,120,2013-01-09 13:53:00
6:53 AM,54.0,39.0,57,29.70,10.0,South,16.1,26.5,N/A,,Clear,180,2013-01-09 14:53:00
7:53 AM,55.0,37.0,51,29.66,10.0,SSE,15.0,-,N/A,,Clear,160,2013-01-09 15:53:00
9:53 AM,55.0,37.0,51,29.65,10.0,WNW,9.2,21.9,N/A,,Clear,300,2013-01-09 17:53:00
10:53 AM,50.0,36.0,59,29.69,10.0,West,13.8,-,N/A,,Overcast,270,2013-01-09 18:53:00
11:53 AM,50.0,37.9,63,29.70,10.0,West,12.7,19.6,0.00,,Overcast,260,2013-01-09 19:53:00
12:53 PM,48.9,36.0,61,29.72,10.0,WSW,16.1,26.5,N/A,,Overcast,250,2013-01-09 20:53:00
2:53 PM,46.0,33.1,61,29.76,10.0,WSW,20.7,29.9,N/A,,Overcast,250,2013-01-09 22:53:00
3:53 PM,45.0,32.0,60,29.79,10.0,WSW,19.6,25.3,N/A,,Mostly Cloudy,250,2013-01-09 23:53:00
4:53 PM,43.0,32.0,65,29.81,10.0,WSW,13.8,25.3,N/A,,Scattered Clouds,240,2013-01-10 00:53:00
5:53 PM,42.1,30.9,65,29.82,10.0,WSW,16.1,25.3,N/A,,Overcast,250,2013-01-10 01:53:00
6:53 PM,41.0,30.9,67,29.83,10.0,WSW,18.4,27.6,N/A,,Overcast,250,2013-01-10 02:53:00
7:53 PM,39.9,30.0,68,29.84,10.0,WSW,19.6,27.6,N/A,,Overcast,240,2013-01-10 03:53:00
8:53 PM,39.0,28.9,67,29.86,10.0,WSW,16.1,21.9,N/A,,Overcast,250,2013-01-10 04:53:00
9:53 PM,39.0,28.9,67,29.87,10.0,WSW,13.8,21.9,N/A,,Clear,240,2013-01-10 05:53:00
10:53 PM,37.9,28.9,70,29.88,10.0,WSW,13.8,20.7,N/A,,Clear,240,2013-01-10 06:53:00
11:53 PM,37.0,28.0,70,29.88,10.0,WSW,11.5,-,N/A,,Clear,240,2013-01-10 07:53:00